User: anonymous   Login
Location: Unspecified
(48.3300°N, 0.0000°E)
Time: 13:11:44
(UTC+00:00)
Language:

N. Korean satellite - Orbit

View from above orbital plane
View from above orbital plane
View from above satellite
View from above satellite

Ground track
Ground track

The orbit data is extracted from the following two-line orbital elements,

1 39026U 12072A   19174.90348320 +.00000891 +00000-0 +34701-4 0  9990
2 39026 097.2104 177.8826 0039964 083.1617 277.4167 15.27813189362337
Epoch (UTC): 23 June 2019 21:41:00
Eccentricity: 0.0039964
inclination: 97.2104°
perigee height: 455 km
apogee height: 510 km
right ascension of ascending node: 177.8826°
argument of perigee: 83.1617°
revolutions per day: 15.27813189
mean anomaly at epoch: 277.4167°
orbit number at epoch: 36233

The dashed part of the orbit path shows where the satellite is in the earth's shadow,  

DLR